Hors Challenge

Le Trail De La Montagne Saint-Pierre - Lanaye (6.60 km)

dimanche 08 mars 2020

 
LE TRAIL DE LA MONTAGNE SAINT-PIERRE - LANAYE
DISTANCE : 6.61 km
dimanche 08 mars 2020
 
Place dos NOM Catégorie Pl/cat temps temps/km Vitesse
01:00:00              
1 3028 GUEBEN OSCAR SEH 1 0:27:44 04:12 14.30
2 3096 NIZET KÉVIN SEH 2 0:28:28 04:18 13.93
3 3026 GUCKEL THIBAUT SEH 3 0:29:51 04:31 13.29
4 3065 MIÉVIS KEVIN SEH 4 0:30:30 04:37 13.00
5 2748 SIMON SCOHIER ESH 1 0:30:47 04:39 12.88
6 3095 KLARZYNSKI DANIEL SEH 5 0:31:17 04:44 12.68
7 3097 XX X SEH 6 0:31:55 04:50 12.43
8 3057 LUYCKX CHRISTOPHE SEH 7 0:31:58 04:50 12.41
9 3018 DELLEUR JEAN MARIE SEH 8 0:32:37 04:56 12.16
10 3079 ROUHART DANIEL SEH 9 0:33:21 05:03 11.89
11 3085 LEMAIRE SACHA ESH 2 0:33:30 05:04 11.84
12 3089 VAN LEEUW JULIEN ESH 3 0:33:49 05:07 11.73
13 3023 DEWALLEF TIM ESH 4 0:34:34 05:14 11.47
14 2742 BRUWIER CLARA ESF 1 0:34:49 05:16 11.39
15 3031 HEGGEN BENJAMIN ESH 5 0:34:51 05:16 11.38
16 3042 JOSEPH CLEMENCE ESF 2 0:34:54 05:17 11.36
17 3045 JOSEPH MAX ESH 6 0:35:20 05:21 11.22
18 3022 DEVILLERS PAULINE ESF 3 0:36:44 05:33 10.80
19 2514 BODSON LAURA SEF 1 0:37:48 05:43 10.49
20 3006 BECKERS JONATHAN SEH 10 0:37:52 05:44 10.47
21 3093 XX X SEH 11 0:38:14 05:47 10.37
22 2744 BRUWIER LUCIE ESF 4 0:40:01 06:03 9.91
23 2743 BRUWIER JEAN PAUL SEH 12 0:40:10 06:05 9.87
24 3019 DENOËL JEAN-BAPTISTE SEH 13 0:40:22 06:06 9.82
25 3020 DENOËL PHILIPPE SEH 14 0:40:23 06:07 9.82
26 3063 MÉLON JULIEN SEH 15 0:41:09 06:14 9.64
27 3024 FRANCOIS-BARON MICHEL SEH 16 0:42:38 06:27 9.30
28 3084 SOPHIE HERZET SEF 2 0:42:39 06:27 9.30
29 3053 LIEUTENANT LUKAS ESH 7 0:43:30 06:35 9.12
30 3082 SIMON EMILIE SEF 3 0:43:36 06:36 9.10
31 2631 LAVERDEUR RALPH SEH 17 0:44:29 06:44 8.92
32 3002 ANDRIEN ERIC SEH 18 0:45:08 06:50 8.79
33 3007 BECKERS SOPHIE SEF 4 0:45:12 06:50 8.77
34 3062 MAURY SANDRINE SEF 5 0:45:17 06:51 8.76
35 3078 ROBALO THOMAS SEH 19 0:45:41 06:55 8.68
36 3088 TROCHAUD JADE SEF 6 0:45:44 06:55 8.67
37 3080 RUYMAEKERS GEOFFREY SEH 20 0:46:04 06:58 8.61
38 3072 PEETERS JO SEH 21 0:46:22 07:01 8.55
39 3087 THISQUEN AURORE SEF 7 0:46:25 07:01 8.54
40 3005 BEAURAIN PHILIPPE SEH 22 0:46:41 07:04 8.50
41 2509 BATTISTUTTA CHRISTIAN SEH 23 0:46:46 07:05 8.48
42 3010 BUDDENBERG JUDITH SEF 8 0:48:32 07:21 8.17
43 3055 LONGTON MARIE SEF 9 0:48:39 07:22 8.15
44 3052 LIEUTENANT CÉDRIC SEH 24 0:49:08 07:26 8.07
45 3038 HUMBLET JACQUES SEH 25 0:50:28 07:38 7.86
46 3075 PHILLIPART AMAURY SEH 26 0:50:37 07:39 7.84
47 3008 BERTONI ALICE SEF 10 0:50:38 07:40 7.83
48 3058 MARECHAL LAURENCE SEF 11 0:50:45 07:41 7.81
49 3014 CROS JEREMY SEH 27 0:51:02 07:43 7.77
50 3081 RUYMAEKERS MICHAEL SEH 28 0:51:13 07:45 7.74
51 3015 DAEMS RONALD SEH 29 0:51:16 07:45 7.74
52 3012 CHEFNEUX MANDY SEF 12 0:51:28 07:47 7.71
53 3056 LOUON ERIC SEH 30 0:52:51 08:00 7.50
54 3083 SMITS KIRSTEN SEF 13 0:52:58 08:01 7.49
55 2746 XX X SEH 31 0:53:09 08:02 7.46
56 3069 NEUPREZ RACHEL SEF 14 0:53:47 08:08 7.37
57 2688 ROYER ALICE SEF 15 0:54:24 08:14 7.29
58 3032 HENDRIKX BRENDA SEF 16 0:54:41 08:16 7.25
59 3025 GIDDING ROB SEH 32 0:55:05 08:20 7.20
60 3017 DE LA CROIX RAYMOND SEH 33 0:55:05 08:20 7.20
61 3029 HAVERE JOHN SEH 34 0:55:06 08:20 7.20
62 2745 XX X SEH 35 0:55:27 08:23 7.15
63 2741 XX X SEH 36 0:55:27 08:23 7.15
64 2522 BRUGGEN LISETTE SEF 17 0:55:28 08:23 7.15
65 2616 HEUSCHEN SABINE SEF 18 0:55:37 08:25 7.13
66 3033 HERMANS MIEP SEF 19 0:55:53 08:27 7.10
67 2683 RAMA NATHALIE SEF 20 0:56:28 08:33 7.02
68 2592 GERMAY CHRISTINE SEF 21 0:56:29 08:33 7.02
69 3073 PERPÊTE ANNE-MARIE SEF 22 0:57:33 08:42 6.89
70 2535 CASTRO CINDY SEF 23 0:58:14 08:49 6.81
71 2689 ROYER AUGUSTIN SEH 37 0:58:14 08:49 6.81
72 3071 ONCLIN BERNADETTE SEF 24 0:58:17 08:49 6.80
73 3047 KINET VIRGINIE SEF 25 0:58:41 08:53 6.76
74 3068 NEUFORT SHARON SEF 26 0:59:27 09:00 6.67
75 3004 BAUDRY MARIE SEF 27 0:59:30 09:00 6.67
76 2652 MICHIELS VANESSA SEF 28 1:00:24 09:08 6.57
77 3009 BUCHELER SARAH SEF 29 1:00:24 09:08 6.57
78 3050 KUIJPERS JOHN SEH 38 1:02:20 09:26 6.36
79 3067 MUERMANS ANNE SEF 30 1:02:20 09:26 6.36
80 3061 MATAR JESSY SEF 31 1:03:07 09:33 6.28
81 3064 MEYERS VÉRONIQUE SEF 32 1:06:14 10:01 5.99
82 2736 XX X SEH 39 1:08:51 10:25 5.76
83 3091 VYNCKE PAUL SEH 40 1:09:19 10:29 5.72
84 3086 STASSINET NICOLE SEF 33 1:09:21 10:30 5.72
85 3092 WARNOTTE LOUIS SEH 41 1:09:25 10:30 5.71
86 3001 AIT-TOUATI ROBERT SEH 42 1:09:25 10:30 5.71
87 3060 MARTIN MURIEL SEF 34 1:09:30 10:31 5.71
88 3066 MORENO VAL SEF 35 1:09:30 10:31 5.71
89 7719 XX X SEH 43 1:38:17 14:52 4.04
90 3099 BRITTE LOUISE ESF 5 2:13:32 20:12 2.97